SCP
0 0 0 0 0 0 0 0 0 0 0 0 0 0 0 0 0 0 0 0 0 0 0 0 0 0 0 0 0 0 0 0 0 0 0 0 0 0 0 0 0 0 0 0
0 0 0 0 0 0 0 0 0 0 0 0 0 -0 0 0 0 0 0 0 0 0 0 0 0 0 0 0 0 0 0 0 0 0 0 0 0 0 0 0 0 0 0 0
0 0 0 0 0 0 0 0 0 0 0 0 0 -0 -0 0 0 0 0 0 0 0 0 0 0 0 0 0 0 0 0 0 0 0 0 0 0 0 0 0 0 0 0 0
0 0 0 0 0 0 0 0 0 0 0 0 0 -0 -0 0 0 0 0 0 0 0 0 0 0 0 0 0 0 0 0 0 0 0 0 0 0 0 0 0 0 0 0 0
0 0 0 0 0 0 0 0 0 0 0 0 0 0 -0 -0 0 0 0 0 0 0 0 0 0 0 0 0 0 0 0 0 0 0 0 0 0 0 0 0 0 0 0 0
0 0 0 0 0 0 0 0 0 0 0 0 0 0 -0 -0 -0 -0 0 0 0 0 0 0 0 0 0 0 0 0 0 0 0 0 0 0 0 0 0 0 0 0 0 0
0 0 0 0 0 0 0 0 0 0 0 0 0 0 0 0 0 0 0 0 0 0 0 0 0 0 0 0 0 0 0 0 0 0 0 0 0 0 0 0 0 0 0 0
0 0 0 0 0 0 0 0 0 0 0 0 0 0 0 0 0 0 0 0 0 -0 0 0 0 0 0 0 0 0 0 0 0 0 0 0 0 0 0 0 0 0 0 0
0 0 0 0 0 0 0 0 0 0 0 0 0 0 0 0 0 0 0 0 0 0 0 -0 0 0 0 0 0 0 0 0 0 0 0 0 0 0 0 0 0 0 0 0
0 0 0 0 0 0 0 0 0 0 0 0 0 0 0 0 0 0 0 0 0 0 0 0 0 0 0 0 0 0 0 0 0 0 0 0 0 0 0 0 0 0 0 0
0 0 0 0 0 0 0 0 0 0 0 0 0 0 0 0 0 0 0 0 0 0 0 0 0 0 0 0 0 0 0 0 0 0 0 0 0 0 0 0 0 0 0 0
0 0 0 0 0 0 0 0 0 0 0 0 0 0 0 0 0 0 0 0 0 0 0 0 0 0 0 0 0 0 0 0 0 0 0 0 0 0 0 0 0 0 0 0
0 0 0 0 0 0 0 0 0 0 0 0 0 0 0 0 0 0 0 0 0 0 -0 -0 -0 -0 -0 0 0 0 0 0 0 0 0 0 0 0 0 0 0 0 0 0
0 0 0 0 0 0 0 0 0 0 0 0 0 0 0 0 0 0 0 0 0 0 -0 -0 -0 -0 0 0 0 0 0 -0 0 0 0 0 0 0 0 0 0 0 0 0
0 0 0 0 0 0 0 0 0 0 0 0 0 0 0 0 0 0 0 0 0 0 0 0 0 0 0 -0 0 0 0 0 0 0 0 0 0 0 0 0 0 0 0 0
-0 0 0 0 0 0 0 0 0 0 0 0 0 0 -0 0 0 0 0 0 0 0 0 0 0 0 0 0 0 0 0 0 0 0 0 0 0 0 0 0 0 0 0 0
0 -0 -0 0 -0 -0 0 0 0 0 0 0 0 0 0 0 0 0 0 0 0 0 0 0 0 0 0 0 0 0 0 0 0 0 0 0 0 0 0 0 0 0 0 0
0 0 0 -0 -0 0 -0 -0 -0 0 0 0 0 0 0 0 0 0 0 0 0 0 0 0 0 0 -0 0 0 0 0 0 0 0 0 0 0 0 0 0 0 0 0 0
0 0 0 0 0 -0 -0 0 -0 0 -0 0 0 0 0 0 0 0 0 0 0 0 0 -0 -0 -0 -0 0 0 0 0 0 0 0 0 0 0 0 0 0 0 0 0 0
0 0 0 0 0 -0 -0 0 0 0 0 0 0 0 0 0 0 0 0 0 0 0 0 0 0 0 0 0 0 0 0 0 0 0 0 0 0 0 0 0 0 0 0 0
0 0 0 0 0 0 0 0 0 0 0 0 0 0 0 0 0 0 0 0 0 0 -0 0 0 0 0 0 0 0 0 0 0 0 0 0 0 0 0 0 0 0 0 0
0 0 0 0 0 0 0 0 0 0 0 0 0 0 0 0 0 0 0 0 0 0 0 0 0 0 0 0 0 0 0 0 0 0 0 0 0 0 0 0 0 0 0 0
0 0 0 0 0 0 0 0 0 0 0 0 0 0 0 0 0 0 0 0 -0 -0 0 0 0 0 -0 0 0 0 0 0 0 0 0 0 0 0 0 0 0 0 0 0
0 0 0 0 0 0 0 0 0 -0 -0 0 0 0 0 0 0 0 0 0 -0 -0 0 0 0 0 0 0 0 0 0 0 0 0 0 0 0 0 0 0 0 0 0 0
0 0 0 0 0 0 0 0 -0 0 0 0 0 0 0 0 0 0 0 0 0 0 0 0 0 0 0 0 0 0 0 0 0 0 0 0 0 0 0 0 0 0 0 0
0 0 0 0 0 0 0 0 0 0 0 0 0 0 0 0 0 0 0 0 0 0 0 0 0 0 0 0 0 0 0 0 0 0 0 0 0 0 0 0 0 0 0 0
Wind_Speed_500mb
12 8 13 19 17 12 8 6 3 3 9 10 15 17 21 44 45 47 51 57 56 58 53 51 53 53 57 61 67 74 82 86 84 83 83 84 91 87 84 82 78 74 67 66
7 9 18 16 11 15 9 8 8 7 5 5 11 22 21 26 41 63 61 66 67 65 58 54 54 57 62 65 65 72 79 85 87 88 85 83 84 88 90 87 81 79 73 69
13 12 29 11 8 10 8 11 8 10 3 5 10 15 16 16 26 42 48 58 58 60 56 54 54 53 57 70 71 68 69 80 86 86 85 85 87 87 88 93 93 89 84 78
14 30 8 9 10 11 8 2 6 7 3 7 4 12 13 13 25 11 39 48 55 52 49 43 34 42 56 56 69 70 67 69 77 80 84 85 88 92 95 95 94 92 89 85
15 13 13 14 11 13 12 5 5 4 3 2 5 5 16 10 13 24 34 43 37 26 24 29 28 31 33 37 48 65 67 65 71 80 83 83 85 89 89 90 92 91 87 83
11 3 8 14 5 4 14 11 13 10 6 9 16 15 7 9 13 9 13 17 12 2 6 10 16 20 30 34 34 48 60 62 65 73 79 82 81 81 83 85 85 82 81 78
6 6 6 8 12 12 10 14 3 5 2 15 5 5 13 15 12 9 6 9 7 11 19 17 16 19 27 28 29 36 47 53 57 63 70 74 75 76 79 80 81 82 79 76
15 10 16 11 16 19 18 17 12 15 9 10 8 14 10 19 19 8 17 24 16 14 15 19 20 25 23 25 28 32 38 41 44 51 57 61 64 69 73 74 77 80 78 73
13 12 4 11 10 22 12 14 13 10 3 6 9 14 15 14 17 27 43 45 21 7 14 15 20 20 21 25 28 27 25 24 29 34 40 47 52 58 62 65 68 73 72 68
8 4 4 1 7 4 14 13 6 4 6 8 9 11 14 11 19 10 11 13 16 12 12 12 16 20 22 23 23 20 15 12 10 14 22 29 36 44 47 53 59 62 63 64
11 7 5 6 13 17 5 7 6 9 11 11 5 13 13 14 11 10 8 19 23 24 18 8 11 13 12 11 12 16 18 12 5 6 13 23 25 32 38 43 48 54 56 59
2 10 9 14 7 9 9 18 14 9 8 9 6 24 7 18 14 21 16 18 18 19 21 19 18 9 5 8 13 16 3 7 13 16 25 29 31 35 37 40 42 47 54 55
11 2 5 10 7 3 8 5 13 5 6 16 11 20 8 6 12 18 21 31 25 20 17 15 17 15 10 9 11 9 16 28 34 37 38 43 44 44 41 43 47 49 52 54
18 6 3 5 5 4 5 7 8 2 8 22 24 28 14 13 19 16 32 47 57 37 26 11 15 24 34 37 39 44 46 44 43 47 54 56 59 55 49 47 51 53 52 52
13 4 2 6 8 4 1 10 8 5 2 9 3 20 12 23 31 57 63 63 33 27 26 30 35 38 42 46 49 50 52 52 52 54 59 61 56 60 56 56 59 59 57 54
8 6 11 9 17 17 10 22 16 18 17 20 14 41 12 36 44 43 46 21 31 33 32 35 41 41 41 44 51 53 56 56 55 59 64 61 59 58 58 59 58 60 60 56
16 10 10 7 16 13 12 27 30 22 18 25 26 38 26 23 12 12 13 18 20 25 32 35 37 37 39 44 49 53 55 55 59 65 61 55 51 56 59 59 59 59 57 55
10 12 5 2 5 9 10 7 21 35 29 31 26 30 11 6 14 12 32 34 36 40 44 46 48 48 46 45 46 51 56 59 60 59 58 57 59 60 59 59 57 55 55 54
9 7 4 7 7 16 21 11 12 14 18 1 7 8 10 20 6 13 30 34 37 43 47 50 52 54 55 57 58 55 50 52 52 51 54 57 57 54 51 51 51 50 50 49
7 3 7 6 9 13 11 3 18 8 9 8 8 6 5 11 6 5 33 39 40 40 43 48 51 53 55 55 58 59 54 48 46 44 43 45 47 47 45 44 46 46 45 44
9 4 28 20 10 14 15 15 4 7 11 15 8 6 7 2 10 35 37 36 41 47 50 52 52 54 55 53 52 52 53 48 43 39 38 37 38 38 38 40 41 40 41 41
13 14 9 7 9 20 14 4 13 9 16 12 2 14 21 26 32 39 41 46 51 56 58 58 61 58 52 53 54 49 50 49 45 41 35 31 29 30 31 31 32 34 34 33
3 12 10 16 13 3 16 14 21 16 4 8 16 30 31 34 42 51 63 65 65 62 61 57 61 62 54 49 47 45 40 41 42 39 32 28 26 26 26 26 25 24 24 23
8 6 6 8 8 9 14 14 15 15 20 31 28 30 36 50 54 51 64 68 69 67 61 54 52 53 51 49 46 45 41 37 36 38 37 32 26 22 20 20 19 18 18 18
13 6 7 5 13 20 25 16 17 20 29 32 43 46 51 52 60 64 73 68 62 57 52 44 41 46 50 50 48 47 46 44 42 40 35 30 27 21 17 19 18 22 24 21
11 8 6 8 15 9 33 58 53 56 58 58 54 57 60 52 62 65 65 49 45 43 44 44 44 42 46 49 51 51 48 47 46 43 34 27 21 19 22 24 27 26 22 20
Wind_Direction_500mb
194 121 194 204 197 197 176 157 187 287 209 159 223 258 263 275 280 275 266 261 256 254 259 257 250 251 250 243 238 234 232 233 235 234 233 225 226 226 229 234 236 239 233 232
61 218 224 215 214 222 243 227 258 303 200 164 274 267 263 256 257 259 262 268 264 263 261 257 254 251 249 249 244 238 236 235 236 239 239 236 232 229 235 237 238 239 234 233
163 223 209 185 190 166 189 176 214 212 347 285 313 287 277 279 253 273 265 266 269 266 268 264 254 249 250 247 246 242 242 241 239 239 238 237 237 236 233 236 239 240 241 239
219 239 129 188 209 151 218 222 225 256 21 238 123 288 287 273 287 258 272 266 264 269 271 275 269 252 248 251 248 246 246 245 242 240 240 240 239 237 238 237 240 241 240 241
233 155 178 196 199 165 210 138 128 130 163 15 278 285 271 257 274 265 263 268 279 283 271 273 264 249 248 254 248 247 244 246 245 243 245 245 243 243 244 245 246 248 249 249
199 149 157 184 79 157 156 79 38 36 70 282 193 197 260 226 210 260 277 281 310 229 195 247 255 251 252 254 239 240 240 242 246 247 248 248 248 248 246 248 250 250 249 248
149 212 153 135 83 19 96 89 335 332 352 238 302 211 247 265 245 185 271 302 257 253 282 268 253 282 279 264 250 240 239 244 244 247 248 250 253 253 253 252 255 256 257 256
167 265 154 186 175 173 189 162 167 198 201 258 329 242 251 231 248 275 289 302 318 272 263 269 278 282 261 253 249 244 243 244 244 245 247 249 252 253 255 256 259 261 260 260
172 242 183 164 159 152 206 208 176 97 20 39 232 290 300 280 305 291 292 302 5 346 298 281 281 281 270 262 247 248 246 241 241 244 246 249 253 255 257 258 260 262 265 264
201 177 322 68 113 46 157 161 78 360 148 255 267 269 229 303 276 344 8 36 23 8 350 301 306 295 273 266 247 231 207 189 218 244 253 254 255 256 258 260 261 264 266 263
179 138 292 146 201 166 127 179 171 141 156 184 254 256 222 214 147 128 68 56 35 27 8 353 329 286 273 244 213 179 152 147 89 355 294 273 264 260 258 259 261 262 265 267
192 172 176 201 240 218 192 202 167 154 225 232 180 257 198 140 160 130 94 53 16 19 13 359 351 331 299 233 184 157 129 296 266 271 288 277 267 265 266 268 265 262 263 266
337 212 79 6 339 352 183 176 215 201 86 214 152 258 324 127 99 82 25 9 5 356 355 5 1 345 309 263 209 233 316 322 301 275 285 276 268 265 270 273 271 268 267 266
28 34 96 195 98 41 126 39 39 149 183 243 231 271 270 312 334 341 353 337 329 322 327 320 341 336 324 311 294 289 295 298 300 277 284 281 270 269 268 271 272 272 272 268
145 210 221 194 151 118 198 288 263 225 333 217 287 286 289 306 291 295 302 311 336 348 339 326 329 327 318 309 305 298 297 296 293 284 284 284 276 268 267 270 273 275 274 270
192 226 177 217 166 187 214 216 235 257 258 253 252 269 259 271 287 291 294 307 343 343 329 322 317 313 311 304 300 297 295 291 282 282 287 281 273 263 266 272 272 271 271 268
158 160 172 252 157 138 277 208 202 209 203 220 247 261 264 271 282 315 6 15 13 349 336 330 323 318 309 304 299 295 291 287 282 286 281 275 270 268 272 273 272 270 268 265
147 155 116 179 84 198 244 187 190 215 229 213 237 262 53 351 335 117 34 19 2 351 339 332 321 311 309 305 301 298 294 288 286 282 278 273 271 273 273 272 270 266 264 262
169 143 118 155 222 304 304 220 201 178 236 243 258 56 350 337 290 199 15 1 353 348 340 334 331 323 312 303 299 296 295 293 289 283 277 275 274 271 269 268 267 264 260 259
151 127 153 137 184 223 243 337 86 51 278 209 124 101 18 356 13 260 342 346 345 343 337 330 325 326 322 313 305 301 295 289 285 279 273 269 268 267 266 262 259 257 255 254
136 158 211 217 229 271 230 237 163 128 241 152 113 51 17 144 256 307 322 329 333 329 324 324 326 321 320 322 315 306 300 292 288 281 275 268 264 263 260 258 258 257 253 250
160 156 193 155 196 260 162 67 158 159 131 138 247 325 288 293 301 306 314 318 320 320 320 314 315 318 322 319 317 315 306 298 290 283 278 272 268 267 264 259 253 248 244 239
221 187 175 182 202 174 152 113 132 152 219 269 292 318 306 288 295 308 312 315 316 316 313 307 302 308 313 318 317 310 307 303 294 284 280 279 280 277 271 262 251 242 238 232
276 178 179 80 269 178 223 219 208 237 261 287 299 314 311 299 288 296 313 311 309 310 310 306 298 297 301 305 307 305 304 299 291 285 281 280 276 268 262 253 232 212 201 196
209 120 166 264 300 321 309 299 301 291 304 294 305 307 309 302 290 296 305 304 304 308 310 309 301 295 298 301 301 296 293 288 282 276 274 270 257 245 230 208 190 176 164 155
182 178 147 226 277 280 290 296 299 306 305 304 304 304 308 298 295 297 295 301 307 311 314 313 306 299 296 294 292 288 284 280 275 268 260 253 247 218 192 181 171 163 157 157
Wind_Speed_850mb
12 8 13 19 17 12 8 6 3 3 9 10 15 17 21 44 45 47 51 57 56 58 53 51 53 53 57 61 67 74 82 86 84 83 83 84 91 87 84 82 78 74 67 66
7 9 18 16 11 15 9 8 8 7 5 5 11 22 21 26 41 63 61 66 67 65 58 54 54 57 62 65 65 72 79 85 87 88 85 83 84 88 90 87 81 79 73 69
13 12 29 11 8 10 8 11 8 10 3 5 10 15 16 16 26 42 48 58 58 60 56 54 54 53 57 70 71 68 69 80 86 86 85 85 87 87 88 93 93 89 84 78
14 30 8 9 10 11 8 2 6 7 3 7 4 12 13 13 25 11 39 48 55 52 49 43 34 42 56 56 69 70 67 69 77 80 84 85 88 92 95 95 94 92 89 85
15 13 13 14 11 13 12 5 5 4 3 2 5 5 16 10 13 24 34 43 37 26 24 29 28 31 33 37 48 65 67 65 71 80 83 83 85 89 89 90 92 91 87 83
11 3 8 14 5 4 14 11 13 10 6 9 16 15 7 9 13 9 13 17 12 2 6 10 16 20 30 34 34 48 60 62 65 73 79 82 81 81 83 85 85 82 81 78
6 6 6 8 12 12 10 14 3 5 2 15 5 5 13 15 12 9 6 9 7 11 19 17 16 19 27 28 29 36 47 53 57 63 70 74 75 76 79 80 81 82 79 76
15 10 16 11 16 19 18 17 12 15 9 10 8 14 10 19 19 8 17 24 16 14 15 19 20 25 23 25 28 32 38 41 44 51 57 61 64 69 73 74 77 80 78 73
13 12 4 11 10 22 12 14 13 10 3 6 9 14 15 14 17 27 43 45 21 7 14 15 20 20 21 25 28 27 25 24 29 34 40 47 52 58 62 65 68 73 72 68
8 4 4 1 7 4 14 13 6 4 6 8 9 11 14 11 19 10 11 13 16 12 12 12 16 20 22 23 23 20 15 12 10 14 22 29 36 44 47 53 59 62 63 64
11 7 5 6 13 17 5 7 6 9 11 11 5 13 13 14 11 10 8 19 23 24 18 8 11 13 12 11 12 16 18 12 5 6 13 23 25 32 38 43 48 54 56 59
2 10 9 14 7 9 9 18 14 9 8 9 6 24 7 18 14 21 16 18 18 19 21 19 18 9 5 8 13 16 3 7 13 16 25 29 31 35 37 40 42 47 54 55
11 2 5 10 7 3 8 5 13 5 6 16 11 20 8 6 12 18 21 31 25 20 17 15 17 15 10 9 11 9 16 28 34 37 38 43 44 44 41 43 47 49 52 54
18 6 3 5 5 4 5 7 8 2 8 22 24 28 14 13 19 16 32 47 57 37 26 11 15 24 34 37 39 44 46 44 43 47 54 56 59 55 49 47 51 53 52 52
13 4 2 6 8 4 1 10 8 5 2 9 3 20 12 23 31 57 63 63 33 27 26 30 35 38 42 46 49 50 52 52 52 54 59 61 56 60 56 56 59 59 57 54
8 6 11 9 17 17 10 22 16 18 17 20 14 41 12 36 44 43 46 21 31 33 32 35 41 41 41 44 51 53 56 56 55 59 64 61 59 58 58 59 58 60 60 56
16 10 10 7 16 13 12 27 30 22 18 25 26 38 26 23 12 12 13 18 20 25 32 35 37 37 39 44 49 53 55 55 59 65 61 55 51 56 59 59 59 59 57 55
10 12 5 2 5 9 10 7 21 35 29 31 26 30 11 6 14 12 32 34 36 40 44 46 48 48 46 45 46 51 56 59 60 59 58 57 59 60 59 59 57 55 55 54
9 7 4 7 7 16 21 11 12 14 18 1 7 8 10 20 6 13 30 34 37 43 47 50 52 54 55 57 58 55 50 52 52 51 54 57 57 54 51 51 51 50 50 49
7 3 7 6 9 13 11 3 18 8 9 8 8 6 5 11 6 5 33 39 40 40 43 48 51 53 55 55 58 59 54 48 46 44 43 45 47 47 45 44 46 46 45 44
9 4 28 20 10 14 15 15 4 7 11 15 8 6 7 2 10 35 37 36 41 47 50 52 52 54 55 53 52 52 53 48 43 39 38 37 38 38 38 40 41 40 41 41
13 14 9 7 9 20 14 4 13 9 16 12 2 14 21 26 32 39 41 46 51 56 58 58 61 58 52 53 54 49 50 49 45 41 35 31 29 30 31 31 32 34 34 33
3 12 10 16 13 3 16 14 21 16 4 8 16 30 31 34 42 51 63 65 65 62 61 57 61 62 54 49 47 45 40 41 42 39 32 28 26 26 26 26 25 24 24 23
8 6 6 8 8 9 14 14 15 15 20 31 28 30 36 50 54 51 64 68 69 67 61 54 52 53 51 49 46 45 41 37 36 38 37 32 26 22 20 20 19 18 18 18
13 6 7 5 13 20 25 16 17 20 29 32 43 46 51 52 60 64 73 68 62 57 52 44 41 46 50 50 48 47 46 44 42 40 35 30 27 21 17 19 18 22 24 21
11 8 6 8 15 9 33 58 53 56 58 58 54 57 60 52 62 65 65 49 45 43 44 44 44 42 46 49 51 51 48 47 46 43 34 27 21 19 22 24 27 26 22 20
Wind_Direction_850mb
194 121 194 204 197 197 176 157 187 287 209 159 223 258 263 275 280 275 266 261 256 254 259 257 250 251 250 243 238 234 232 233 235 234 233 225 226 226 229 234 236 239 233 232
61 218 224 215 214 222 243 227 258 303 200 164 274 267 263 256 257 259 262 268 264 263 261 257 254 251 249 249 244 238 236 235 236 239 239 236 232 229 235 237 238 239 234 233
163 223 209 185 190 166 189 176 214 212 347 285 313 287 277 279 253 273 265 266 269 266 268 264 254 249 250 247 246 242 242 241 239 239 238 237 237 236 233 236 239 240 241 239
219 239 129 188 209 151 218 222 225 256 21 238 123 288 287 273 287 258 272 266 264 269 271 275 269 252 248 251 248 246 246 245 242 240 240 240 239 237 238 237 240 241 240 241
233 155 178 196 199 165 210 138 128 130 163 15 278 285 271 257 274 265 263 268 279 283 271 273 264 249 248 254 248 247 244 246 245 243 245 245 243 243 244 245 246 248 249 249
199 149 157 184 79 157 156 79 38 36 70 282 193 197 260 226 210 260 277 281 310 229 195 247 255 251 252 254 239 240 240 242 246 247 248 248 248 248 246 248 250 250 249 248
149 212 153 135 83 19 96 89 335 332 352 238 302 211 247 265 245 185 271 302 257 253 282 268 253 282 279 264 250 240 239 244 244 247 248 250 253 253 253 252 255 256 257 256
167 265 154 186 175 173 189 162 167 198 201 258 329 242 251 231 248 275 289 302 318 272 263 269 278 282 261 253 249 244 243 244 244 245 247 249 252 253 255 256 259 261 260 260
172 242 183 164 159 152 206 208 176 97 20 39 232 290 300 280 305 291 292 302 5 346 298 281 281 281 270 262 247 248 246 241 241 244 246 249 253 255 257 258 260 262 265 264
201 177 322 68 113 46 157 161 78 360 148 255 267 269 229 303 276 344 8 36 23 8 350 301 306 295 273 266 247 231 207 189 218 244 253 254 255 256 258 260 261 264 266 263
179 138 292 146 201 166 127 179 171 141 156 184 254 256 222 214 147 128 68 56 35 27 8 353 329 286 273 244 213 179 152 147 89 355 294 273 264 260 258 259 261 262 265 267
192 172 176 201 240 218 192 202 167 154 225 232 180 257 198 140 160 130 94 53 16 19 13 359 351 331 299 233 184 157 129 296 266 271 288 277 267 265 266 268 265 262 263 266
337 212 79 6 339 352 183 176 215 201 86 214 152 258 324 127 99 82 25 9 5 356 355 5 1 345 309 263 209 233 316 322 301 275 285 276 268 265 270 273 271 268 267 266
28 34 96 195 98 41 126 39 39 149 183 243 231 271 270 312 334 341 353 337 329 322 327 320 341 336 324 311 294 289 295 298 300 277 284 281 270 269 268 271 272 272 272 268
145 210 221 194 151 118 198 288 263 225 333 217 287 286 289 306 291 295 302 311 336 348 339 326 329 327 318 309 305 298 297 296 293 284 284 284 276 268 267 270 273 275 274 270
192 226 177 217 166 187 214 216 235 257 258 253 252 269 259 271 287 291 294 307 343 343 329 322 317 313 311 304 300 297 295 291 282 282 287 281 273 263 266 272 272 271 271 268
158 160 172 252 157 138 277 208 202 209 203 220 247 261 264 271 282 315 6 15 13 349 336 330 323 318 309 304 299 295 291 287 282 286 281 275 270 268 272 273 272 270 268 265
147 155 116 179 84 198 244 187 190 215 229 213 237 262 53 351 335 117 34 19 2 351 339 332 321 311 309 305 301 298 294 288 286 282 278 273 271 273 273 272 270 266 264 262
169 143 118 155 222 304 304 220 201 178 236 243 258 56 350 337 290 199 15 1 353 348 340 334 331 323 312 303 299 296 295 293 289 283 277 275 274 271 269 268 267 264 260 259
151 127 153 137 184 223 243 337 86 51 278 209 124 101 18 356 13 260 342 346 345 343 337 330 325 326 322 313 305 301 295 289 285 279 273 269 268 267 266 262 259 257 255 254
136 158 211 217 229 271 230 237 163 128 241 152 113 51 17 144 256 307 322 329 333 329 324 324 326 321 320 322 315 306 300 292 288 281 275 268 264 263 260 258 258 257 253 250
160 156 193 155 196 260 162 67 158 159 131 138 247 325 288 293 301 306 314 318 320 320 320 314 315 318 322 319 317 315 306 298 290 283 278 272 268 267 264 259 253 248 244 239
221 187 175 182 202 174 152 113 132 152 219 269 292 318 306 288 295 308 312 315 316 316 313 307 302 308 313 318 317 310 307 303 294 284 280 279 280 277 271 262 251 242 238 232
276 178 179 80 269 178 223 219 208 237 261 287 299 314 311 299 288 296 313 311 309 310 310 306 298 297 301 305 307 305 304 299 291 285 281 280 276 268 262 253 232 212 201 196
209 120 166 264 300 321 309 299 301 291 304 294 305 307 309 302 290 296 305 304 304 308 310 309 301 295 298 301 301 296 293 288 282 276 274 270 257 245 230 208 190 176 164 155
182 178 147 226 277 280 290 296 299 306 305 304 304 304 308 298 295 297 295 301 307 311 314 313 306 299 296 294 292 288 284 280 275 268 260 253 247 218 192 181 171 163 157 157